Tracking 31027 objects as of 19-Jul-2025
HD Live streaming from Space Station
objects crossing your sky now

STARLINK-11393

Track STARLINK-11393 now!
10-day predictions
STARLINK-11393 is classified as:


NORAD ID: 62016
Int'l Code: 2024-213J
Perigee: 366.0 km
Apogee: 367.4 km
Inclination: 53.2 °
Period: 91.7 minutes
Semi major axis: 6737 km
RCS: Unknown
Launch date: November 18, 2024
Source: United States (US)
Launch site: AIR FORCE WESTERN TEST RANGE (AFWTR)
Your satellite tracking list
MANDRAKE 2 ABLE
Track 1 satellite(s)




NASA's NSSDC Master Catalog

Two Line Element Set (TLE):
1 62016U 24213J   25199.79784772  .00164285  00000-0  13310-2 0  9990
2 62016  53.1568 113.9813 0000983  97.1191 262.9939 15.69767765 39134
Source of the keplerian elements: AFSPC